Simultaneous Nadir Overpasses (SNOs) Predictions

Prediction of SNOs between AQUA and NPP Satellite Orbit:

Table of predicted SNOs for the next 14.0 days since TLE Epoch: 7/15/2023
Index Date (AQUA) Time (AQUA) Lat,Lon (AQUA) SZA (AQUA ) Date (NPP) Time (NPP) Lat,Lon (NPP) SZA (NPP ) Distance(km) Time Diff (sec)
1 07/17/2023 04:52:46 80.63, 15.93 69.46 07/17/2023 04:52:08 80.63, 15.94 69.48 0.26 38
2 07/17/2023 05:42:07 -80.74,-175.10 110.76 07/17/2023 05:42:48 -80.74,-174.99 110.81 2.04 41
3 07/19/2023 19:27:35 80.71, 158.20 69.75 07/19/2023 19:27:30 80.71, 158.34 69.73 2.52 5
4 07/19/2023 20:16:34 -81.32, -24.78 111.70 07/19/2023 20:17:48 -81.16, -24.51 111.80 18.11 74
5 07/22/2023 09:13:04 -80.66, 131.33 109.68 07/22/2023 09:12:13 -80.66, 131.46 109.66 2.30 51
6 07/22/2023 10:02:25 80.74, -60.15 70.19 07/22/2023 10:02:54 80.74, -59.97 70.14 3.17 29
7 07/24/2023 23:47:53 -80.70, -86.94 109.22 07/24/2023 23:47:37 -80.70, -86.88 109.22 1.05 16
8 07/25/2023 00:37:14 80.77, 81.56 70.65 07/25/2023 00:38:18 80.77, 81.68 70.59 2.25 64
9 07/27/2023 13:33:20 80.61,-114.24 71.50 07/27/2023 13:32:21 80.61,-114.40 71.57 2.91 59



Historial Predications of SNOs between AQUA and NPP
